FW6222 Weather Reports


Display with metric or nautical units.
time (UTC)temp
F
wind
direction
speed
MPH
gust
MPH
rain 1hr
in
rain 24hr
in
rain mn
in
humidity
%
barometer
mb
20260505070008 57 92 12.0 19.0 0.00 0.00 0.00 44 1007.2
20260505065504 57 91 12.0 18.0 0.00 0.00 0.00 44 1007.1
20260505065014 57 91 11.0 18.0 0.00 0.00 0.00 44 1007.1
20260505064504 58 87 10.0 18.0 0.00 0.00 0.00 44 1007.3
20260505064220 58 85 10.0 18.0 0.00 0.00 0.00 44 1007.3
20260505063503 58 81 11.0 18.0 0.00 0.00 0.00 43 1007.3
20260505063009 58 79 11.0 18.0 0.00 0.00 0.00 43 1007.2
20260505062719 58 77 12.0 20.0 0.00 0.00 0.00 43 1007.1
20260505062003 59 73 15.0 24.0 0.00 0.00 0.00 42 1006.9
20260505061504 59 67 17.0 25.0 0.00 0.00 0.00 42 1007.0
20260505061004 59 61 18.0 26.0 0.00 0.00 0.00 41 1007.0
20260505060508 60 58 15.0 26.0 0.00 0.00 0.00 42 1006.9
20260505060004 60 56 14.0 21.0 0.00 0.00 0.00 42 1006.8
20260505055509 60 55 16.0 23.0 0.00 0.00 0.00 42 1006.8
20260505055009 60 54 17.0 24.0 0.00 0.00 0.00 41 1006.7
20260505054718 60 53 17.0 24.0 0.00 0.00 0.00 41 1006.6
20260505054004 61 49 18.0 28.0 0.00 0.00 0.00 41 1006.5
20260505053714 61 49 19.0 28.0 0.00 0.00 0.00 41 1006.5
20260505053008 61 48 18.0 28.0 0.00 0.00 0.00 40 1006.6
20260505052515 62 48 19.0 27.0 0.00 0.00 0.00 40 1006.5
20260505052004 62 47 19.0 28.0 0.00 0.00 0.00 39 1006.3
20260505051509 62 49 19.0 28.0 0.00 0.00 0.00 38 1006.2
20260505051008 63 51 19.0 27.0 0.00 0.00 0.00 38 1005.9
20260505050503 63 49 18.0 27.0 0.00 0.00 0.00 38 1005.8
20260505041504 65 20 14.0 21.0 0.00 0.00 0.00 35 1005.4
20260505041003 65 15 13.0 22.0 0.00 0.00 0.00 36 1005.5
20260505040504 65 6 13.0 22.0 0.00 0.00 0.00 36 1005.3
20260505040005 65 2 13.0 22.0 0.00 0.00 0.00 36 1005.3
20260505035508 66 2 16.0 27.0 0.00 0.00 0.00 35 1005.1
20260505035008 66 356 15.0 27.0 0.00 0.00 0.00 34 1005.2
20260505034508 66 348 14.0 25.0 0.00 0.00 0.00 34 1005.3
20260505034004 67 354 17.0 26.0 0.00 0.00 0.00 34 1005.2
20260505033503 67 3 17.0 29.0 0.00 0.00 0.00 33 1004.9
20260505033213 67 5 15.0 29.0 0.00 0.00 0.00 33 1004.9
20260505032504 68 7 11.0 24.0 0.00 0.00 0.00 30 1004.7
20260505032003 68 12 14.0 25.0 0.00 0.00 0.00 29 1004.7
20260505031508 68 5 15.0 25.0 0.00 0.00 0.00 29 1004.2
20260505031004 68 351 13.0 19.0 0.00 0.00 0.00 29 1004.1
20260505030713 68 345 13.0 19.0 0.00 0.00 0.00 29 1004.0
20260505030008 68 331 8.0 19.0 0.00 0.00 0.00 29 1003.7
20260505025504 68 335 7.0 13.0 0.00 0.00 0.00 28 1003.5
20260505025004 69 346 8.0 13.0 0.00 0.00 0.00 26 1003.2
20260505024504 69 351 7.0 12.0 0.00 0.00 0.00 26 1003.0
20260505024009 69 349 6.0 11.0 0.00 0.00 0.00 26 1002.6
20260505023504 69 353 7.0 12.0 0.00 0.00 0.00 25 1002.5
20260505023003 69 10 8.0 12.0 0.00 0.00 0.00 25 1002.6
20260505022504 70 19 8.0 12.0 0.00 0.00 0.00 24 1002.2
20260505022008 70 21 7.0 12.0 0.00 0.00 0.00 24 1002.2
20260505021503 70 26 7.0 11.0 0.00 0.00 0.00 23 1002.2
20260505021003 70 37 7.0 11.0 0.00 0.00 0.00 23 1002.1
20260505020509 71 46 8.0 11.0 0.00 0.00 0.00 23 1002.0
20260505020009 71 51 8.0 12.0 0.00 0.00 0.00 23 1001.8
20260505015714 71 51 9.0 13.0 0.00 0.00 0.00 23 1001.8
20260505015004 71 44 10.0 15.0 0.00 0.00 0.00 22 1001.6
20260505014509 72 36 11.0 15.0 0.00 0.00 0.00 22 1001.7
20260505014008 72 30 11.0 15.0 0.00 0.00 0.00 22 1001.5
20260505013503 72 28 11.0 17.0 0.00 0.00 0.00 22 1001.4
20260505013004 72 24 12.0 18.0 0.00 0.00 0.00 21 1001.4
20260505012718 72 24 12.0 20.0 0.00 0.00 0.00 21 1001.5
20260505012005 73 20 13.0 20.0 0.00 0.00 0.00 21 1001.4
20260505011509 73 17 12.0 18.0 0.00 0.00 0.00 20 1001.5
20260505011003 74 14 11.0 18.0 0.00 0.00 0.00 20 1001.4
20260505010503 74 358 11.0 20.0 0.00 0.00 0.00 20 1001.3
20260505010003 74 334 8.0 20.0 0.00 0.00 0.00 19 1001.3
20260505005504 74 307 6.0 10.0 0.00 0.00 0.00 24 1001.3
20260505005005 74 308 5.0 10.0 0.00 0.00 0.00 23 1001.2
20260505004716 74 308 5.0 10.0 0.00 0.00 0.00 24 1001.3
20260505004214 74 310 3.0 6.0 0.00 0.00 0.00 26 1001.3
20260505003717 75 312 3.0 6.0 0.00 0.00 0.00 25 1001.0
20260505003220 75 312 4.0 6.0 0.00 0.00 0.00 23 1001.0
20260505002504 76 309 4.0 6.0 0.00 0.00 0.00 22 1001.2
20260505002216 76 309 4.0 6.0 0.00 0.00 0.00 22 1001.2
20260505001503 76 307 4.0 7.0 0.00 0.00 0.00 22 1001.1
20260505001003 77 306 4.0 7.0 0.00 0.00 0.00 21 1001.2
20260505000504 77 306 5.0 9.0 0.00 0.00 0.00 21 1001.4
20260505000003 77 307 6.0 10.0 0.00 0.00 0.00 20 1001.5
20260504235721 77 308 6.0 10.0 0.00 0.00 0.00 20 1001.5
20260504235004 77 303 8.0 12.0 0.00 0.00 0.00 21 1001.6
20260504234503 77 304 8.0 12.0 0.00 0.00 0.00 20 1001.6
20260504234004 78 302 6.0 13.0 0.00 0.00 0.00 20 1001.4
20260504233503 78 304 7.0 13.0 0.00 0.00 0.00 19 1001.4
20260504233004 78 309 7.0 13.0 0.00 0.00 0.00 20 1001.5
20260504232503 79 307 7.0 13.0 0.00 0.00 0.00 19 1001.3
20260504232003 79 300 7.0 11.0 0.00 0.00 0.00 19 1001.4
20260504231503 79 299 8.0 12.0 0.00 0.00 0.00 18 1001.4
20260504231217 79 300 9.0 14.0 0.00 0.00 0.00 19 1001.4
20260504230715 79 300 8.0 14.0 0.00 0.00 0.00 19 1001.4
20260504230003 79 304 7.0 14.0 0.00 0.00 0.00 17 1001.3
20260504225503 79 297 9.0 18.0 0.00 0.00 0.00 17 1001.3
20260504225214 80 288 10.0 18.0 0.00 0.00 0.00 16 1001.1
20260504224717 80 277 10.0 17.0 0.00 0.00 0.00 15 1001.1
20260504224004 80 273 7.0 16.0 0.00 0.00 0.00 15 1001.0
20260504223504 80 289 5.0 10.0 0.00 0.00 0.00 15 1001.1
20260504223216 80 290 7.0 22.0 0.00 0.00 0.00 15 1001.1
20260504222504 81 284 7.0 22.0 0.00 0.00 0.00 15 1001.3
20260504222004 81 291 5.0 9.0 0.00 0.00 0.00 14 1001.3
20260504221503 80 294 4.0 8.0 0.00 0.00 0.00 15 1001.2
20260504221218 80 293 4.0 8.0 0.00 0.00 0.00 15 1001.3
20260504220503 80 296 7.0 13.0 0.00 0.00 0.00 14 1001.4
20260504220214 81 301 7.0 13.0 0.00 0.00 0.00 15 1001.4
20260504215504 80 300 6.0 11.0 0.00 0.00 0.00 15 1001.4
20260504215003 80 287 7.0 11.0 0.00 0.00 0.00 14 1001.4
20260504214503 81 293 8.0 12.0 0.00 0.00 0.00 14 1001.4
20260504214004 81 305 8.0 12.0 0.00 0.00 0.00 14 1001.5
20260504213503 81 302 9.0 14.0 0.00 0.00 0.00 14 1001.7
20260504213003 81 294 10.0 16.0 0.00 0.00 0.00 15 1001.8
20260504212504 81 287 10.0 16.0 0.00 0.00 0.00 14 1001.8
20260504212004 81 268 10.0 15.0 0.00 0.00 0.00 14 1001.9
20260504211716 81 261 10.0 19.0 0.00 0.00 0.00 14 1001.9
20260504211003 81 280 10.0 19.0 0.00 0.00 0.00 14 1002.1
20260504210504 82 279 11.0 29.0 0.00 0.00 0.00 14 1002.1
20260504210004 82 273 13.0 29.0 0.00 0.00 0.00 14 1002.1
20260504205504 82 275 11.0 17.0 0.00 0.00 0.00 13 1002.1
20260504205004 82 271 10.0 17.0 0.00 0.00 0.00 13 1002.2
20260504204713 81 268 10.0 17.0 0.00 0.00 0.00 14 1002.4
20260504204004 82 260 14.0 20.0 0.00 0.00 0.00 13 1002.6
20260504203503 82 257 13.0 20.0 0.00 0.00 0.00 13 1002.7
20260504203217 82 262 13.0 20.0 0.00 0.00 0.00 13 1002.7
20260504202503 82 282 11.0 18.0 0.00 0.00 0.00 13 1002.9
20260504202004 82 292 9.0 19.0 0.00 0.00 0.00 13 1003.0
20260504201504 82 293 5.0 19.0 0.00 0.00 0.00 12 1003.0
20260504201004 82 302 3.0 8.0 0.00 0.00 0.00 15 1003.1
20260504200503 81 309 5.0 11.0 0.00 0.00 0.00 14 1003.1
20260504200003 80 304 5.0 11.0 0.00 0.00 0.00 15 1003.2
20260504195504 80 243 3.0 8.0 0.00 0.00 0.00 17 1003.2
20260504195004 80 114 4.0 9.0 0.00 0.00 0.00 16 1003.1
20260504194714 80 98 4.0 9.0 0.00 0.00 0.00 16 1003.1
20260504194009 80 74 3.0 9.0 0.00 0.00 0.00 18 1003.1
20260504193509 80 68 2.0 6.0 0.00 0.00 0.00 17 1003.2
20260504193213 80 48 3.0 8.0 0.00 0.00 0.00 17 1003.3
20260504192504 79 19 6.0 13.0 0.00 0.00 0.00 16 1003.3
20260504192214 79 11 8.0 15.0 0.00 0.00 0.00 16 1003.4
20260504191503 79 21 8.0 15.0 0.00 0.00 0.00 16 1003.5
20260504191215 80 28 6.0 14.0 0.00 0.00 0.00 16 1003.5
20260504190504 81 20 3.0 8.0 0.00 0.00 0.00 17 1003.6
20260504190004 80 311 4.0 9.0 0.00 0.00 0.00 17 1003.7
20260504185503 80 288 5.0 9.0 0.00 0.00 0.00 17 1003.7
20260504185004 80 280 5.0 9.0 0.00 0.00 0.00 17 1003.9
20260504184715 80 275 4.0 9.0 0.00 0.00 0.00 17 1003.8
20260504184004 79 301 5.0 14.0 0.00 0.00 0.00 17 1003.9
20260504183503 79 293 5.0 9.0 0.00 0.00 0.00 18 1003.9
20260504183003 79 262 4.0 8.0 0.00 0.00 0.00 18 1003.9
20260504182504 79 259 3.0 8.0 0.00 0.00 0.00 18 1003.8
20260504182004 79 277 5.0 12.0 0.00 0.00 0.00 18 1004.0
20260504181503 79 293 5.0 12.0 0.00 0.00 0.00 17 1004.2
20260504181003 79 300 4.0 8.0 0.00 0.00 0.00 18 1004.2
20260504180713 79 296 5.0 11.0 0.00 0.00 0.00 18 1004.2
20260504180217 79 297 6.0 13.0 0.00 0.00 0.00 18 1004.3
20260504175715 79 305 7.0 14.0 0.00 0.00 0.00 18 1004.4
20260504175003 78 305 8.0 14.0 0.00 0.00 0.00 20 1004.5
20260504174504 78 283 8.0 12.0 0.00 0.00 0.00 20 1004.7
20260504174004 78 263 8.0 12.0 0.00 0.00 0.00 20 1004.7
20260504173503 78 269 11.0 17.0 0.00 0.00 0.00 20 1004.8
20260504173003 78 272 10.0 17.0 0.00 0.00 0.00 20 1005.2
20260504172504 78 273 9.0 16.0 0.00 0.00 0.00 21 1005.3
20260504172004 78 276 10.0 16.0 0.00 0.00 0.00 21 1005.3
20260504171503 78 288 10.0 17.0 0.00 0.00 0.00 21 1005.3
20260504171004 77 298 12.0 19.0 0.00 0.00 0.00 23 1005.5
20260504170503 77 295 12.0 19.0 0.00 0.00 0.00 22 1005.5
20260504160214 72 293 9.0 14.0 0.00 0.00 0.00 28 1006.3
20260504150503 70 285 7.0 16.0 0.00 0.00 0.00 27 1007.0
20260504141004 63 276 7.0 11.0 0.00 0.00 0.00 35 1006.9
20260504140504 62 260 7.0 10.0 0.00 0.00 0.00 37 1006.8
20260504130722 53 248 1.0 3.0 0.00 0.00 0.00 52 1007.2
20260504110503 43 239 5.0 14.0 0.00 0.00 0.00 69 1006.8
20260504100504 45 156 0.0 2.0 0.00 0.00 0.00 62 1006.7
20260504082008 50 284 4.0 7.0 0.00 0.00 0.00 53 1006.8
20260504081503 48 278 4.0 7.0 0.00 0.00 0.00 55 1007.0
20260504081004 47 272 3.0 6.0 0.00 0.00 0.00 57 1006.8
20260504080503 47 285 2.0 3.0 0.00 0.00 0.00 56 1006.7